Weather History for Crossville, TN

Change the Weather History Date:

Friday, January 6, 2012

  Actual Average Record
Temperature  
Mean Temperature 46 °F 36 °F  
Max Temperature 61 °F 44 °F 65 °F (1998)
Min Temperature 31 °F 27 °F -2 °F (2014)
Degree Days  
Heating Degree Days 19    
Month to date heating degree days 178  
Since 1 July heating degree days 1677  
Cooling Degree Days 0    
Month to date cooling degree days 0  
Year to date cooling degree days 0  
Moisture  
Dew Point 31 °F    
Average Humidity 51    
Maximum Humidity 78    
Minimum Humidity 23    
Precipitation  
Precipitation 0.00 in 0.16 in 1.55 in (1964)
Month to date precipitation 0.30 0.91  
Year to date precipitation 0.30 0.91  
Sea Level Pressure  
Sea Level Pressure 30.05 in    
Wind  
Wind Speed 5 mph (SW)    
Max Wind Speed 15 mph    
Max Gust Speed 23 mph    
Visibility 10 miles    
Events      
T = Trace of Precipitation, MM = Missing Value Source: NWS Daily Summary

Daily Weather History Graph

Daily Weather History Graph

Search for Another Location

Airport:

Trip Planner

Search our weather history database for the weather conditions in past years. The results will help you decide how hot, cold, wet, or windy it might be!

Date:

Astronomy

Jan. 06, 2012 Rise Set
Actual Time 6:51 AM CST 4:40 PM CST
Civil Twilight 6:23 AM CST 5:09 PM CST
Nautical Twilight 5:51 AM CST 5:41 PM CST
Astronomical Twilight 5:20 AM CST 6:12 PM CST
Moon 2:31 PM CST (1/6) 4:30 AM CST (1/6)
Length of Visible Light 10h 46m
Length of Day
9h 49m
Waxing Gibbous, 93% of the Moon is Illuminated
Jan 6
Waxing Gibbous
Jan 9
Full
Jan 16
Last Quarter
Jan 23
New
Jan 30
First Quarter

Hourly Weather History & Observations

Time (CST) Temp. Windchill Dew Point Humidity Pressure Visibility Wind Dir Wind Speed Gust Speed Precip Events Conditions
12:53 AM 39.0 °F - 24.1 °F 55% 30.09 in 10.0 mi Calm Calm - N/A   Clear
1:53 AM 33.1 °F - 24.1 °F 70% 30.09 in 10.0 mi Calm Calm - N/A   Clear
2:53 AM 32.0 °F - 24.1 °F 73% 30.09 in 10.0 mi Calm Calm - N/A   Clear
3:53 AM 37.0 °F - 26.1 °F 65% 30.08 in 10.0 mi Calm Calm - N/A   Clear
4:53 AM 34.0 °F - 26.1 °F 73% 30.10 in 10.0 mi Calm Calm - N/A   Clear
5:53 AM 32.0 °F - 26.1 °F 79% 30.11 in 10.0 mi Calm Calm - N/A   Clear
6:53 AM 34.0 °F 31.0 °F 27.0 °F 75% 30.11 in 10.0 mi South 3.5 mph - N/A   Clear
7:53 AM 37.9 °F - 28.0 °F 68% 30.12 in 10.0 mi Calm Calm - N/A   Clear
8:53 AM 45.0 °F 42.6 °F 28.9 °F 53% 30.13 in 10.0 mi SSW 4.6 mph - N/A   Clear
9:53 AM 51.1 °F - 28.9 °F 43% 30.12 in 10.0 mi SW 6.9 mph - N/A   Clear
10:53 AM 55.0 °F - 27.0 °F 34% 30.09 in 10.0 mi WSW 9.2 mph - N/A   Clear
11:53 AM 57.0 °F - 23.0 °F 27% 30.05 in 10.0 mi SW 9.2 mph 19.6 mph N/A   Clear
12:53 PM 59.0 °F - 24.1 °F 26% 30.02 in 10.0 mi SW 11.5 mph 17.3 mph N/A   Clear
1:53 PM 60.1 °F - 23.0 °F 24% 30.01 in 10.0 mi SW 10.4 mph 17.3 mph N/A   Clear
2:53 PM 60.1 °F - 25.0 °F 26% 30.00 in 10.0 mi SW 9.2 mph 18.4 mph N/A   Clear
3:53 PM 59.0 °F - 28.0 °F 31% 30.00 in 10.0 mi WSW 6.9 mph - N/A   Clear
4:53 PM 53.6 °F - 30.2 °F 41% 30.01 in 10.0 mi Variable 3.5 mph - N/A   Clear
5:53 PM 53.1 °F - 37.0 °F 55% 30.02 in 10.0 mi Variable 5.8 mph - N/A   Clear
6:53 PM 51.1 °F - 36.0 °F 56% 30.01 in 10.0 mi South 4.6 mph - N/A   Clear
7:53 PM 51.1 °F - 37.0 °F 59% 30.01 in 10.0 mi SW 4.6 mph - N/A   Clear
8:53 PM 52.0 °F - 39.0 °F 61% 30.00 in 10.0 mi SSW 4.6 mph - N/A   Partly Cloudy
9:53 PM 53.1 °F - 41.0 °F 64% 30.00 in 10.0 mi Variable 4.6 mph - N/A   Overcast
10:53 PM 54.0 °F - 43.0 °F 66% 29.98 in 10.0 mi South 5.8 mph - N/A   Overcast
11:51 PM 53.6 °F - 44.6 °F 72% 29.99 in 10.0 mi SSW 5.8 mph - N/A   Overcast
11:53 PM 53.1 °F - 44.1 °F 71% 29.96 in 10.0 mi SSW 5.8 mph - N/A   Overcast